TimeCDT,TemperatureF,Dew PointF,Humidity,Sea Level PressureIn,VisibilityMPH,Wind Direction,Wind SpeedMPH,Gust SpeedMPH,PrecipitationIn,Events,Conditions,WindDirDegrees,DateUTC
12:53 AM,46.0,41.0,83,30.00,10.0,NW,6.9,-,N/A,,Clear,310,2012-09-18 05:53:00
1:53 AM,46.0,39.9,79,30.02,10.0,NW,8.1,-,N/A,,Clear,320,2012-09-18 06:53:00
2:53 AM,46.0,39.9,79,30.03,10.0,NNW,9.2,-,N/A,,Clear,340,2012-09-18 07:53:00
3:53 AM,45.0,39.9,82,30.04,10.0,NNW,9.2,-,N/A,,Clear,330,2012-09-18 08:53:00
4:53 AM,44.1,39.9,85,30.04,10.0,NNW,8.1,-,N/A,,Clear,330,2012-09-18 09:53:00
5:53 AM,43.0,39.0,86,30.06,10.0,NNW,8.1,-,0.01,,Clear,330,2012-09-18 10:53:00
6:53 AM,42.1,37.9,85,30.06,10.0,NNW,5.8,-,N/A,,Clear,330,2012-09-18 11:53:00
7:53 AM,44.1,39.0,82,30.08,10.0,NW,6.9,-,N/A,,Clear,320,2012-09-18 12:53:00
8:53 AM,48.0,39.9,74,30.09,10.0,NNW,9.2,-,N/A,,Clear,340,2012-09-18 13:53:00
9:53 AM,53.1,42.1,66,30.11,10.0,NNW,8.1,-,N/A,,Clear,330,2012-09-18 14:53:00
10:53 AM,55.9,37.9,51,30.11,10.0,NW,10.4,18.4,N/A,,Clear,320,2012-09-18 15:53:00
11:53 AM,59.0,37.0,44,30.11,10.0,NNW,11.5,18.4,N/A,,Clear,340,2012-09-18 16:53:00
12:53 PM,61.0,37.0,41,30.09,10.0,NW,11.5,20.7,N/A,,Clear,320,2012-09-18 17:53:00
1:53 PM,62.1,36.0,38,30.08,10.0,NNW,10.4,20.7,N/A,,Clear,340,2012-09-18 18:53:00
2:53 PM,63.0,36.0,37,30.06,10.0,Variable,4.6,-,N/A,,Clear,0,2012-09-18 19:53:00
3:53 PM,64.0,34.0,33,30.04,10.0,WNW,12.7,17.3,N/A,,Clear,300,2012-09-18 20:53:00
4:53 PM,64.0,33.1,31,30.03,10.0,WNW,4.6,-,N/A,,Clear,300,2012-09-18 21:53:00
5:53 PM,64.0,34.0,33,30.03,10.0,WSW,4.6,-,N/A,,Clear,250,2012-09-18 22:53:00
6:53 PM,61.0,37.0,41,30.04,10.0,WSW,3.5,-,N/A,,Clear,250,2012-09-18 23:53:00
7:53 PM,57.9,37.9,47,30.04,10.0,SSW,4.6,-,N/A,,Clear,210,2012-09-19 00:53:00
8:53 PM,55.0,39.0,55,30.04,10.0,South,5.8,-,N/A,,Clear,190,2012-09-19 01:53:00
9:53 PM,54.0,37.9,55,30.04,10.0,South,6.9,-,N/A,,Clear,180,2012-09-19 02:53:00
10:53 PM,53.1,37.0,55,30.03,10.0,South,6.9,-,N/A,,Clear,170,2012-09-19 03:53:00
11:53 PM,50.0,37.9,63,30.01,10.0,South,5.8,-,N/A,,Clear,170,2012-09-19 04:53:00